Weather History for KMRT - September, 2013

Change the Weather History Date:

Thursday, September 19, 2013

  Actual Average (KDLZ) Record (KDLZ)
Temperature  
Mean Temperature 70 °F -  
Max Temperature 76 °F 74 °F 95 °F (1955)
Min Temperature 63 °F 52 °F 33 °F (2012)
Cooling Degree Days 4    
Growing Degree Days 20 (Base 50)    
Moisture  
Dew Point 63 °F    
Average Humidity 85    
Maximum Humidity 95    
Minimum Humidity 62    
Precipitation  
Precipitation 0.00 in - - ()
Sea Level Pressure  
Sea Level Pressure 30.07 in    
Wind  
Wind Speed 5 mph (SSW)    
Max Wind Speed 12 mph    
Max Gust Speed -    
Visibility 4 miles    
Events      
Averages and records for this station are not official NWS values.
T = Trace of Precipitation, MM = Missing Value Source: NWS Daily Summary

Daily Weather History Graph

Daily Weather History Graph

Search for Another Location

Airport or City:

Trip Planner

Search our weather history database for the weather conditions in past years. The results will help you decide how hot, cold, wet, or windy it might be!

Date:

Astronomy

Sep. 19, 2013 Rise Set
Actual Time 7:18 AM EDT 7:35 PM EDT
Civil Twilight 6:51 AM EDT 8:02 PM EDT
Nautical Twilight 6:19 AM EDT 8:34 PM EDT
Astronomical Twilight 5:46 AM EDT 9:06 PM EDT
Moon 7:32 PM EDT (9/19) 7:26 AM EDT (9/19)
Length of Visible Light 13h 11m
Length of Day
12h 16m
Full, 100% of the Moon is Illuminated
Sep 19
Full
Sep 26
Last Quarter
Oct 4
New
Oct 11
First Quarter
Oct 18
Full

Hourly Weather History & Observations

Time (EDT) Temp. Dew Point Humidity Pressure Visibility Wind Dir Wind Speed Gust Speed Precip Events Conditions
12:13 AM 63.5 °F 60.3 °F 89% 30.11 in 5.0 mi South 4.6 mph - N/A   Overcast
12:33 AM 63.5 °F 60.6 °F 90% 30.11 in 4.0 mi SSW 5.8 mph - N/A   Overcast
12:54 AM 63.7 °F 61.0 °F 91% 30.10 in 3.0 mi South 6.9 mph - N/A   Overcast
1:13 AM 64.0 °F 61.3 °F 91% 30.10 in 2.5 mi SSW 5.8 mph - N/A   Overcast
1:33 AM 64.0 °F 61.7 °F 92% 30.10 in 2.0 mi South 5.8 mph - N/A   Overcast
1:54 AM 64.0 °F 61.7 °F 92% 30.11 in 2.0 mi SSW 4.6 mph - N/A   Overcast
2:13 AM 63.9 °F 61.9 °F 93% 30.11 in 1.0 mi SSW 5.8 mph - N/A   Overcast
2:33 AM 64.0 °F 62.1 °F 93% 30.10 in 0.5 mi South 5.8 mph - N/A   Overcast
2:53 AM 64.4 °F 62.6 °F 94% 30.10 in 0.5 mi South 5.8 mph - N/A   Overcast
3:14 AM 64.4 °F 62.6 °F 94% 30.10 in 0.5 mi South 5.8 mph - N/A   Overcast
3:33 AM 64.4 °F 62.6 °F 94% 30.10 in 0.5 mi South 5.8 mph - N/A   Overcast
3:53 AM 64.4 °F 62.8 °F 94% 30.09 in 0.8 mi South 4.6 mph - N/A   Overcast
4:14 AM 64.6 °F 63.0 °F 94% 30.09 in 1.0 mi South 5.8 mph - N/A   Overcast
4:33 AM 64.6 °F 63.0 °F 94% 30.09 in 1.0 mi South 6.9 mph - N/A   Overcast
4:53 AM 64.4 °F 62.8 °F 94% 30.09 in 1.2 mi Calm Calm - N/A   Overcast
5:14 AM 64.4 °F 62.6 °F 94% 30.10 in 1.0 mi South 4.6 mph - N/A   Overcast
5:33 AM 64.0 °F 62.6 °F 95% 30.09 in 1.0 mi South 5.8 mph - N/A   Overcast
5:53 AM 64.0 °F 62.6 °F 95% 30.09 in 1.0 mi South 5.8 mph - N/A   Overcast
6:14 AM 64.0 °F 62.4 °F 94% 30.09 in 0.8 mi South 6.9 mph - N/A   Overcast
6:33 AM 63.9 °F 62.4 °F 95% 30.09 in 0.8 mi South 5.8 mph - N/A   Overcast
6:53 AM 64.0 °F 62.6 °F 95% 30.09 in 0.8 mi South 6.9 mph - N/A   Overcast
7:14 AM 64.2 °F 62.6 °F 94% 30.10 in 0.8 mi South 5.8 mph - N/A   Overcast
7:33 AM 64.4 °F 62.6 °F 94% 30.10 in 0.5 mi South 4.6 mph - N/A   Overcast
7:53 AM 64.4 °F 62.6 °F 94% 30.10 in 0.5 mi South 4.6 mph - N/A   Overcast
8:14 AM 64.4 °F 62.8 °F 94% 30.10 in 0.5 mi South 4.6 mph - N/A   Overcast
8:33 AM 64.4 °F 62.8 °F 94% 30.11 in 0.5 mi South 5.8 mph - N/A   Overcast
8:53 AM 64.6 °F 63.0 °F 94% 30.11 in 0.5 mi South 6.9 mph - N/A   Overcast
9:13 AM 64.6 °F 63.0 °F 94% 30.10 in 0.8 mi South 5.8 mph - N/A   Overcast
9:33 AM 64.8 °F 63.1 °F 94% 30.11 in 0.8 mi South 6.9 mph - N/A   Overcast
9:54 AM 64.9 °F 63.5 °F 95% 30.11 in 1.0 mi South 4.6 mph - N/A   Overcast
10:13 AM 65.3 °F 63.5 °F 94% 30.10 in 1.2 mi South 4.6 mph - N/A   Overcast
10:33 AM 65.5 °F 63.9 °F 94% 30.09 in 1.8 mi South 5.8 mph - N/A   Overcast
10:54 AM 65.8 °F 64.2 °F 94% 30.09 in 3.0 mi South 5.8 mph - N/A   Overcast
11:13 AM 66.2 °F 64.4 °F 94% 30.09 in 3.0 mi South 5.8 mph - N/A   Overcast
11:33 AM 66.6 °F 64.4 °F 93% 30.09 in 4.0 mi South 5.8 mph - N/A   Overcast
11:54 AM 66.7 °F 64.2 °F 92% 30.10 in 4.0 mi South 5.8 mph - N/A   Overcast
12:13 PM 68.2 °F 64.8 °F 89% 30.10 in 5.0 mi SSW 5.8 mph - N/A   Overcast
12:33 PM 67.5 °F 64.4 °F 90% 30.09 in 4.0 mi SSW 6.9 mph - N/A   Overcast
12:54 PM 70.7 °F 65.3 °F 83% 30.09 in 7.0 mi South 8.1 mph - N/A   Overcast
1:13 PM 71.6 °F 64.4 °F 78% 30.09 in 7.0 mi SSW 5.8 mph - N/A   Mostly Cloudy
1:33 PM 75.2 °F 63.5 °F 67% 30.07 in 10.0 mi SSW 8.1 mph - N/A   Mostly Cloudy
1:54 PM 73.4 °F 63.5 °F 71% 30.06 in 10.0 mi South 11.5 mph - N/A   Overcast
2:13 PM 74.7 °F 62.1 °F 65% 30.06 in 10.0 mi WSW 10.4 mph - N/A   Mostly Cloudy
2:33 PM 76.3 °F 62.6 °F 62% 30.06 in 10.0 mi SSW 8.1 mph - N/A   Mostly Cloudy
2:54 PM 74.5 °F 62.1 °F 65% 30.06 in 10.0 mi WSW 5.8 mph - N/A   Mostly Cloudy
3:13 PM 73.8 °F 61.7 °F 66% 30.06 in 10.0 mi West 6.9 mph - N/A   Mostly Cloudy
3:33 PM 75.9 °F 62.1 °F 62% 30.06 in 10.0 mi West 6.9 mph - N/A   Mostly Cloudy
3:53 PM 75.7 °F 62.6 °F 64% 30.05 in 10.0 mi SSW 4.6 mph - N/A   Mostly Cloudy
4:13 PM 75.2 °F 62.4 °F 64% 30.05 in 10.0 mi West 5.8 mph - N/A   Overcast
4:34 PM 75.2 °F 62.1 °F 64% 30.05 in 10.0 mi Calm Calm - N/A   Overcast
4:53 PM 74.5 °F 62.4 °F 66% 30.04 in 10.0 mi West 4.6 mph - N/A   Overcast
5:13 PM 75.6 °F 62.6 °F 64% 30.04 in 10.0 mi West 4.6 mph - N/A   Mostly Cloudy
5:33 PM 75.9 °F 62.8 °F 64% 30.04 in 10.0 mi WSW 3.5 mph - N/A   Clear
5:53 PM 75.2 °F 62.8 °F 65% 30.05 in 10.0 mi Calm Calm - N/A   Mostly Cloudy
6:13 PM 74.8 °F 63.0 °F 66% 30.05 in 10.0 mi Calm Calm - N/A   Scattered Clouds
6:33 PM 74.3 °F 63.0 °F 68% 30.04 in 10.0 mi SSW 3.5 mph - N/A   Mostly Cloudy
6:53 PM 73.4 °F 63.5 °F 71% 30.03 in 10.0 mi South 3.5 mph - N/A   Mostly Cloudy
7:13 PM 71.8 °F 64.0 °F 77% 30.01 in 10.0 mi SSE 6.9 mph - N/A   Scattered Clouds
7:33 PM 70.7 °F 64.6 °F 81% 30.01 in 10.0 mi South 5.8 mph - N/A   Clear
7:53 PM 69.4 °F 64.4 °F 84% 30.01 in 7.0 mi South 3.5 mph - N/A   Clear
8:13 PM 68.9 °F 64.6 °F 86% 30.00 in 5.0 mi SE 3.5 mph - N/A   Clear
8:33 PM 68.4 °F 64.4 °F 87% 30.00 in 5.0 mi Calm Calm - N/A   Clear
8:53 PM 68.0 °F 64.4 °F 88% 30.01 in 4.0 mi SSE 3.5 mph - N/A   Clear
9:13 PM 67.5 °F 64.2 °F 89% 30.01 in 4.0 mi South 3.5 mph - N/A   Scattered Clouds
9:33 PM 66.6 °F 63.9 °F 91% 30.02 in 3.0 mi South 3.5 mph - N/A   Scattered Clouds
9:53 PM 66.4 °F 63.9 °F 92% 30.02 in 3.0 mi South 3.5 mph - N/A   Clear
10:13 PM 66.2 °F 63.7 °F 92% 30.02 in 2.5 mi Calm Calm - N/A   Scattered Clouds
10:33 PM 66.2 °F 63.9 °F 92% 30.03 in 2.5 mi South 3.5 mph - N/A   Overcast
10:53 PM 65.7 °F 63.5 °F 93% 30.03 in 2.0 mi Calm Calm - N/A   Mostly Cloudy
11:13 PM 66.2 °F 64.4 °F 94% 30.04 in 2.5 mi Calm Calm - N/A   Overcast
11:33 PM 66.4 °F 64.4 °F 93% 30.03 in 2.5 mi SSW 4.6 mph - N/A   Overcast
11:53 PM 66.6 °F 64.6 °F 93% 30.03 in 1.2 mi SSW 5.8 mph - N/A   Overcast